| time (UTC) | temp C | wind direction | speed KPH | gust KPH | rain 1hr cm | rain 24hr cm | rain mn cm | humidity % | barometer mb |
| 20260505101529 | 17 | 174 | 6.4 | 9.7 | 0.00 | 0.00 | 0.00 | 89 | 1009.8 |
| 20260505101029 | 17 | 175 | 4.8 | 6.4 | 0.00 | 0.00 | 0.00 | 89 | 1009.8 |
| 20260505100748 | 17 | 175 | 3.2 | 6.4 | 0.00 | 0.00 | 0.00 | 89 | 1009.8 |
| 20260505100029 | 17 | 171 | 3.2 | 8.0 | 0.00 | 0.00 | 0.00 | 89 | 1009.7 |
| 20260505095752 | 17 | 176 | 3.2 | 9.7 | 0.00 | 0.00 | 0.00 | 89 | 1009.6 |
| 20260505095029 | 17 | 179 | 4.8 | 9.7 | 0.00 | 0.00 | 0.00 | 89 | 1009.8 |
| 20260505094529 | 17 | 146 | 3.2 | 6.4 | 0.00 | 0.00 | 0.00 | 88 | 1009.9 |
| 20260505094246 | 17 | 179 | 3.2 | 6.4 | 0.00 | 0.00 | 0.00 | 88 | 1009.8 |
| 20260505093529 | 17 | 176 | 3.2 | 6.4 | 0.00 | 0.00 | 0.00 | 88 | 1009.8 |
| 20260505093028 | 17 | 185 | 3.2 | 8.0 | 0.00 | 0.00 | 0.00 | 88 | 1009.8 |
| 20260505092529 | 17 | 155 | 3.2 | 9.7 | 0.00 | 0.00 | 0.00 | 88 | 1010.0 |
| 20260505092029 | 17 | 176 | 3.2 | 9.7 | 0.00 | 0.00 | 0.00 | 88 | 1010.0 |
| 20260505091750 | 17 | 173 | 3.2 | 8.0 | 0.00 | 0.00 | 0.00 | 88 | 1009.9 |
| 20260505091029 | 17 | 164 | 3.2 | 6.4 | 0.00 | 0.00 | 0.00 | 88 | 1010.0 |
| 20260505090529 | 17 | 172 | 1.6 | 4.8 | 0.00 | 0.00 | 0.00 | 88 | 1010.1 |
| 20260505090029 | 17 | 173 | 3.2 | 4.8 | 0.00 | 0.00 | 0.00 | 87 | 1010.2 |
| 20260505085529 | 17 | 173 | 1.6 | 4.8 | 0.00 | 0.00 | 0.00 | 87 | 1010.3 |
| 20260505085029 | 17 | 191 | 3.2 | 4.8 | 0.00 | 0.00 | 0.00 | 87 | 1010.2 |
| 20260505084529 | 17 | 191 | 3.2 | 6.4 | 0.00 | 0.00 | 0.00 | 86 | 1010.3 |
| 20260505084028 | 17 | 192 | 3.2 | 6.4 | 0.00 | 0.00 | 0.00 | 86 | 1010.1 |
| 20260505083529 | 17 | 182 | 4.8 | 8.0 | 0.00 | 0.00 | 0.00 | 86 | 1009.9 |
| 20260505083005 | 17 | 175 | 4.8 | 8.0 | 0.00 | 0.00 | 0.00 | 86 | 1009.8 |
| 20260505082502 | 17 | 179 | 3.2 | 8.0 | 0.00 | 0.00 | 0.00 | 86 | 1009.8 |
| 20260505082001 | 17 | 169 | 4.8 | 8.0 | 0.00 | 0.00 | 0.00 | 86 | 1009.7 |
| 20260505081501 | 17 | 173 | 3.2 | 8.0 | 0.00 | 0.00 | 0.00 | 86 | 1009.9 |
| 20260505081001 | 17 | 173 | 3.2 | 8.0 | 0.00 | 0.00 | 0.00 | 85 | 1009.9 |
| 20260505080502 | 17 | 184 | 3.2 | 8.0 | 0.00 | 0.00 | 0.00 | 85 | 1009.9 |
| 20260505080000 | 17 | 173 | 4.8 | 8.0 | 0.00 | 0.00 | 0.00 | 85 | 1009.8 |
| 20260505075501 | 17 | 178 | 4.8 | 8.0 | 0.00 | 0.00 | 0.00 | 85 | 1009.9 |
| 20260505075001 | 17 | 171 | 3.2 | 6.4 | 0.00 | 0.00 | 0.00 | 84 | 1010.1 |
| 20260505074457 | 17 | 171 | 4.8 | 6.4 | 0.00 | 0.00 | 0.00 | 84 | 1010.1 |
| 20260505073956 | 17 | 191 | 3.2 | 6.4 | 0.00 | 0.00 | 0.00 | 84 | 1010.1 |
| 20260505073657 | 17 | 173 | 3.2 | 9.7 | 0.00 | 0.00 | 0.00 | 84 | 1010.1 |
| 20260505073645 | 17 | 182 | 3.2 | 6.4 | 0.00 | 0.00 | 0.00 | 84 | 1010.1 |
| 20260505072430 | 17 | 173 | 3.2 | 9.7 | 0.00 | 0.00 | 0.00 | 84 | 1010.2 |
| 20260505071929 | 17 | 187 | 4.8 | 8.0 | 0.00 | 0.00 | 0.00 | 84 | 1010.2 |
| 20260505071429 | 17 | 175 | 3.2 | 6.4 | 0.00 | 0.00 | 0.00 | 83 | 1010.2 |
| 20260505070930 | 17 | 178 | 3.2 | 6.4 | 0.00 | 0.00 | 0.00 | 83 | 1010.3 |
| 20260505070649 | 17 | 135 | 3.2 | 8.0 | 0.00 | 0.00 | 0.00 | 83 | 1010.4 |
| 20260505065929 | 17 | 175 | 4.8 | 8.0 | 0.00 | 0.00 | 0.00 | 82 | 1010.5 |
| 20260505065658 | 17 | 172 | 4.8 | 8.0 | 0.00 | 0.00 | 0.00 | 82 | 1010.3 |
| 20260505065149 | 17 | 171 | 3.2 | 8.0 | 0.00 | 0.00 | 0.00 | 82 | 1010.4 |
| 20260505064429 | 17 | 171 | 4.8 | 8.0 | 0.00 | 0.00 | 0.00 | 82 | 1010.7 |
| 20260505063928 | 18 | 177 | 4.8 | 8.0 | 0.00 | 0.00 | 0.00 | 82 | 1010.7 |
| 20260505063428 | 18 | 148 | 3.2 | 8.0 | 0.00 | 0.00 | 0.00 | 81 | 1010.7 |
| 20260505062928 | 18 | 173 | 4.8 | 9.7 | 0.00 | 0.00 | 0.00 | 81 | 1010.7 |
| 20260505062428 | 18 | 182 | 6.4 | 11.3 | 0.00 | 0.00 | 0.00 | 81 | 1010.8 |
| 20260505061931 | 18 | 184 | 4.8 | 11.3 | 0.00 | 0.00 | 0.00 | 81 | 1010.8 |
| 20260505061432 | 18 | 128 | 3.2 | 8.0 | 0.00 | 0.00 | 0.00 | 81 | 1010.8 |
| 20260505060931 | 18 | 188 | 3.2 | 8.0 | 0.00 | 0.00 | 0.00 | 81 | 1010.9 |
| 20260505060703 | 18 | 173 | 3.2 | 8.0 | 0.00 | 0.00 | 0.00 | 81 | 1011.0 |
| 20260505055931 | 18 | 172 | 4.8 | 8.0 | 0.00 | 0.00 | 0.00 | 80 | 1010.9 |
| 20260505055431 | 18 | 175 | 4.8 | 8.0 | 0.00 | 0.00 | 0.00 | 80 | 1010.9 |
| 20260505054931 | 18 | 184 | 3.2 | 8.0 | 0.00 | 0.00 | 0.00 | 80 | 1011.1 |
| 20260505054431 | 18 | 175 | 3.2 | 8.0 | 0.00 | 0.00 | 0.00 | 80 | 1011.1 |
| 20260505053931 | 18 | 161 | 4.8 | 8.0 | 0.00 | 0.00 | 0.00 | 80 | 1011.1 |
| 20260505053431 | 18 | 180 | 3.2 | 8.0 | 0.00 | 0.00 | 0.00 | 80 | 1011.1 |
| 20260505052931 | 18 | 161 | 3.2 | 8.0 | 0.00 | 0.00 | 0.00 | 80 | 1011.2 |
| 20260505052431 | 18 | 169 | 3.2 | 8.0 | 0.00 | 0.00 | 0.00 | 80 | 1011.4 |
| 20260505051931 | 18 | 196 | 3.2 | 6.4 | 0.00 | 0.00 | 0.00 | 80 | 1011.2 |
| 20260505051913 | 18 | 202 | 3.2 | 6.4 | 0.00 | 0.00 | 0.00 | 80 | 1011.6 |
| 20260505051153 | 18 | 190 | 3.2 | 6.4 | 0.00 | 0.00 | 0.00 | 80 | 1011.7 |
| 20260505050429 | 18 | 190 | 3.2 | 6.4 | 0.00 | 0.00 | 0.00 | 80 | 1011.8 |
| 20260505041650 | 18 | 177 | 4.8 | 8.0 | 0.00 | 0.00 | 0.00 | 82 | 1011.4 |
| 20260505040931 | 17 | 196 | 3.2 | 6.4 | 0.00 | 0.00 | 0.00 | 82 | 1011.7 |
| 20260505040432 | 17 | 196 | 3.2 | 6.4 | 0.00 | 0.00 | 0.00 | 83 | 1011.7 |
| 20260505040420 | 17 | 175 | 3.2 | 4.8 | 0.00 | 0.00 | 0.00 | 82 | 1011.7 |
| 20260505035431 | 18 | 175 | 3.2 | 6.4 | 0.00 | 0.00 | 0.00 | 82 | 1011.6 |
| 20260505035154 | 18 | 175 | 3.2 | 6.4 | 0.00 | 0.00 | 0.00 | 82 | 1011.8 |
| 20260505034431 | 18 | 175 | 3.2 | 4.8 | 0.00 | 0.00 | 0.00 | 82 | 1011.7 |
| 20260505033931 | 18 | 175 | 3.2 | 4.8 | 0.00 | 0.00 | 0.00 | 82 | 1011.7 |
| 20260505033431 | 18 | 175 | 3.2 | 4.8 | 0.00 | 0.00 | 0.00 | 82 | 1011.6 |
| 20260505033150 | 18 | 175 | 3.2 | 4.8 | 0.00 | 0.00 | 0.00 | 81 | 1011.6 |
| 20260505032655 | 18 | 175 | 3.2 | 4.8 | 0.00 | 0.00 | 0.00 | 81 | 1011.7 |
| 20260505031930 | 18 | 174 | 3.2 | 4.8 | 0.00 | 0.00 | 0.00 | 81 | 1011.7 |
| 20260505031649 | 18 | 176 | 3.2 | 4.8 | 0.00 | 0.00 | 0.00 | 80 | 1011.5 |
| 20260505030904 | 18 | 176 | 3.2 | 4.8 | 0.00 | 0.00 | 0.00 | 80 | 1011.6 |
| 20260505030403 | 18 | 176 | 3.2 | 4.8 | 0.00 | 0.00 | 0.00 | 80 | 1011.5 |
| 20260505030121 | 18 | 176 | 3.2 | 4.8 | 0.00 | 0.00 | 0.00 | 79 | 1011.6 |
| 20260505025403 | 18 | 176 | 3.2 | 4.8 | 0.00 | 0.00 | 0.00 | 79 | 1011.5 |
| 20260505024903 | 19 | 176 | 3.2 | 4.8 | 0.00 | 0.00 | 0.00 | 78 | 1011.5 |
| 20260505024403 | 19 | 176 | 1.6 | 4.8 | 0.00 | 0.00 | 0.00 | 77 | 1011.3 |
| 20260505023903 | 19 | 176 | 3.2 | 6.4 | 0.00 | 0.00 | 0.00 | 77 | 1011.4 |
| 20260505023403 | 19 | 195 | 3.2 | 6.4 | 0.00 | 0.00 | 0.00 | 76 | 1011.1 |
| 20260505022903 | 19 | 167 | 3.2 | 6.4 | 0.00 | 0.00 | 0.00 | 76 | 1011.0 |
| 20260505022403 | 20 | 182 | 3.2 | 6.4 | 0.00 | 0.00 | 0.00 | 76 | 1010.9 |
| 20260505021903 | 20 | 182 | 3.2 | 6.4 | 0.00 | 0.00 | 0.00 | 75 | 1011.1 |
| 20260505021403 | 20 | 182 | 3.2 | 6.4 | 0.00 | 0.00 | 0.00 | 75 | 1011.1 |
| 20260505021130 | 20 | 157 | 3.2 | 4.8 | 0.00 | 0.00 | 0.00 | 75 | 1010.9 |
| 20260505020403 | 20 | 156 | 3.2 | 6.4 | 0.00 | 0.00 | 0.00 | 75 | 1011.1 |
| 20260505020128 | 20 | 192 | 4.8 | 8.0 | 0.00 | 0.00 | 0.00 | 74 | 1011.1 |
| 20260505015404 | 20 | 171 | 3.2 | 8.0 | 0.00 | 0.00 | 0.00 | 74 | 1010.8 |
| 20260505015344 | 20 | 192 | 4.8 | 8.0 | 0.00 | 0.00 | 0.00 | 74 | 1010.9 |
| 20260505014852 | 20 | 165 | 3.2 | 8.0 | 0.00 | 0.00 | 0.00 | 74 | 1010.8 |
| 20260505014332 | 20 | 164 | 1.6 | 6.4 | 0.00 | 0.00 | 0.00 | 73 | 1010.8 |
| 20260505014055 | 20 | 164 | 3.2 | 6.4 | 0.00 | 0.00 | 0.00 | 73 | 1010.8 |
| 20260505012903 | 20 | 164 | 1.6 | 3.2 | 0.00 | 0.00 | 0.00 | 74 | 1010.8 |
| 20260505012403 | 20 | 140 | 1.6 | 3.2 | 0.00 | 0.00 | 0.00 | 74 | 1010.8 |
| 20260505011903 | 20 | 142 | 1.6 | 3.2 | 0.00 | 0.00 | 0.00 | 73 | 1010.7 |
| 20260505011403 | 20 | 142 | 0.0 | 3.2 | 0.00 | 0.00 | 0.00 | 73 | 1010.8 |
| 20260505010903 | 21 | 142 | 0.0 | 3.2 | 0.00 | 0.00 | 0.00 | 73 | 1010.9 |
| 20260505010403 | 21 | 142 | 1.6 | 3.2 | 0.00 | 0.00 | 0.00 | 72 | 1010.8 |
| 20260505010133 | 21 | 142 | 1.6 | 3.2 | 0.00 | 0.00 | 0.00 | 72 | 1010.8 |
| 20260505005402 | 21 | 177 | 1.6 | 3.2 | 0.00 | 0.00 | 0.00 | 71 | 1010.6 |
| 20260505004903 | 21 | 177 | 1.6 | 6.4 | 0.00 | 0.00 | 0.00 | 71 | 1010.6 |
| 20260505004402 | 21 | 177 | 3.2 | 6.4 | 0.00 | 0.00 | 0.00 | 70 | 1010.5 |
| 20260505004118 | 21 | 167 | 4.8 | 8.0 | 0.00 | 0.00 | 0.00 | 70 | 1010.6 |
| 20260505003402 | 22 | 169 | 3.2 | 8.0 | 0.00 | 0.00 | 0.00 | 69 | 1010.5 |
| 20260505002902 | 22 | 169 | 3.2 | 6.4 | 0.00 | 0.00 | 0.00 | 69 | 1010.7 |
| 20260505002623 | 22 | 167 | 4.8 | 6.4 | 0.00 | 0.00 | 0.00 | 69 | 1010.7 |
| 20260505002347 | 22 | 155 | 3.2 | 6.4 | 0.00 | 0.00 | 0.00 | 68 | 1010.6 |
| 20260505001627 | 22 | 185 | 4.8 | 6.4 | 0.00 | 0.00 | 0.00 | 68 | 1010.6 |
| 20260505000901 | 22 | 183 | 4.8 | 8.0 | 0.00 | 0.00 | 0.00 | 68 | 1010.6 |
| 20260505000335 | 23 | 175 | 4.8 | 9.7 | 0.00 | 0.00 | 0.00 | 66 | 1010.6 |
| 20260504235830 | 23 | 174 | 4.8 | 9.7 | 0.00 | 0.00 | 0.00 | 67 | 1010.8 |
| 20260504235329 | 23 | 173 | 4.8 | 12.9 | 0.00 | 0.00 | 0.00 | 66 | 1010.9 |
| 20260504234829 | 23 | 189 | 4.8 | 12.9 | 0.00 | 0.00 | 0.00 | 65 | 1011.1 |
| 20260504234329 | 23 | 169 | 3.2 | 9.7 | 0.00 | 0.00 | 0.00 | 65 | 1010.9 |
| 20260504234053 | 23 | 165 | 8.0 | 9.7 | 0.00 | 0.00 | 0.00 | 63 | 1011.1 |
| 20260504233329 | 23 | 180 | 6.4 | 9.7 | 0.00 | 0.00 | 0.00 | 62 | 1011.3 |
| 20260504233100 | 23 | 178 | 6.4 | 11.3 | 0.00 | 0.00 | 0.00 | 64 | 1011.4 |
| 20260504232329 | 23 | 213 | 4.8 | 11.3 | 0.00 | 0.00 | 0.00 | 63 | 1011.5 |
| 20260504231829 | 23 | 180 | 6.4 | 12.9 | 0.00 | 0.00 | 0.00 | 63 | 1011.5 |
| 20260504231329 | 23 | 193 | 8.0 | 12.9 | 0.00 | 0.00 | 0.00 | 63 | 1011.5 |
| 20260504230829 | 24 | 181 | 4.8 | 14.5 | 0.00 | 0.00 | 0.00 | 62 | 1011.4 |
| 20260504230329 | 24 | 188 | 6.4 | 14.5 | 0.00 | 0.00 | 0.00 | 62 | 1011.6 |
| 20260504225828 | 24 | 171 | 8.0 | 12.9 | 0.00 | 0.00 | 0.00 | 60 | 1011.6 |
| 20260504225329 | 24 | 226 | 9.7 | 12.9 | 0.00 | 0.00 | 0.00 | 62 | 1011.8 |
| 20260504224829 | 24 | 184 | 9.7 | 11.3 | 0.00 | 0.00 | 0.00 | 61 | 1011.7 |
| 20260504224329 | 24 | 159 | 6.4 | 16.1 | 0.00 | 0.00 | 0.00 | 61 | 1011.7 |
| 20260504223829 | 24 | 175 | 8.0 | 16.1 | 0.00 | 0.00 | 0.00 | 59 | 1011.7 |
| 20260504223329 | 25 | 176 | 8.0 | 12.9 | 0.00 | 0.00 | 0.00 | 61 | 1011.8 |
| 20260504222829 | 25 | 183 | 6.4 | 9.7 | 0.00 | 0.00 | 0.00 | 61 | 1011.9 |
| 20260504222329 | 25 | 192 | 9.7 | 20.9 | 0.00 | 0.00 | 0.00 | 59 | 1011.8 |
| 20260504221828 | 25 | 201 | 14.5 | 20.9 | 0.00 | 0.00 | 0.00 | 58 | 1011.8 |
| 20260504221314 | 25 | 186 | 8.0 | 14.5 | 0.00 | 0.00 | 0.00 | 61 | 1011.9 |
| 20260504220813 | 25 | 178 | 9.7 | 16.1 | 0.00 | 0.00 | 0.00 | 60 | 1011.8 |
| 20260504220308 | 24 | 187 | 9.7 | 17.7 | 0.00 | 0.00 | 0.00 | 60 | 1011.9 |
| 20260504220249 | 25 | 188 | 11.3 | 19.3 | 0.00 | 0.00 | 0.00 | 59 | 1012.1 |
| 20260504220012 | 24 | 242 | 9.7 | 19.3 | 0.00 | 0.00 | 0.00 | 59 | 1012.0 |
| 20260504214801 | 25 | 188 | 8.0 | 14.5 | 0.00 | 0.00 | 0.00 | 62 | 1012.2 |
| 20260504214301 | 24 | 227 | 9.7 | 16.1 | 0.00 | 0.00 | 0.00 | 58 | 1012.2 |
| 20260504213802 | 25 | 202 | 8.0 | 16.1 | 0.00 | 0.00 | 0.00 | 59 | 1012.3 |
| 20260504213301 | 25 | 198 | 8.0 | 16.1 | 0.00 | 0.00 | 0.00 | 60 | 1012.2 |
| 20260504212801 | 25 | 211 | 11.3 | 16.1 | 0.00 | 0.00 | 0.00 | 59 | 1012.5 |
| 20260504212757 | 25 | 206 | 8.0 | 17.7 | 0.00 | 0.00 | 0.00 | 60 | 1012.6 |
| 20260504211800 | 25 | 245 | 11.3 | 20.9 | 0.00 | 0.00 | 0.00 | 58 | 1012.6 |
| 20260504211300 | 25 | 194 | 9.7 | 20.9 | 0.00 | 0.00 | 0.00 | 60 | 1012.6 |
| 20260504210801 | 25 | 181 | 6.4 | 16.1 | 0.00 | 0.00 | 0.00 | 57 | 1012.4 |
| 20260504210301 | 25 | 176 | 9.7 | 16.1 | 0.00 | 0.00 | 0.00 | 59 | 1012.6 |
| 20260504205801 | 25 | 192 | 8.0 | 16.1 | 0.00 | 0.00 | 0.00 | 56 | 1012.6 |
| 20260504205301 | 25 | 174 | 8.0 | 11.3 | 0.00 | 0.00 | 0.00 | 58 | 1012.6 |
| 20260504205012 | 25 | 177 | 6.4 | 19.3 | 0.00 | 0.00 | 0.00 | 57 | 1012.7 |
| 20260504205002 | 25 | 194 | 4.8 | 14.5 | 0.00 | 0.00 | 0.00 | 57 | 1012.6 |
| 20260504203804 | 24 | 241 | 11.3 | 19.3 | 0.00 | 0.00 | 0.00 | 60 | 1012.8 |
| 20260504203303 | 24 | 237 | 8.0 | 16.1 | 0.00 | 0.00 | 0.00 | 55 | 1012.9 |
| 20260504203028 | 25 | 171 | 8.0 | 16.1 | 0.00 | 0.00 | 0.00 | 56 | 1013.0 |
| 20260504202304 | 25 | 175 | 9.7 | 20.9 | 0.00 | 0.00 | 0.00 | 60 | 1013.3 |
| 20260504201803 | 25 | 190 | 12.9 | 20.9 | 0.00 | 0.00 | 0.00 | 57 | 1013.2 |
| 20260504201524 | 25 | 207 | 11.3 | 16.1 | 0.00 | 0.00 | 0.00 | 56 | 1013.3 |
| 20260504200753 | 25 | 222 | 8.0 | 16.1 | 0.00 | 0.00 | 0.00 | 57 | 1013.3 |
| 20260504200249 | 25 | 209 | 11.3 | 0.0 | 0.00 | 0.00 | 0.00 | 57 | 1013.5 |
| 20260504195903 | -17 | 0.0 | 0.0 | 0.00 | 0.00 | 0.00 | |||
| 20260504195402 | -17 | 0.0 | 0.0 | 0.00 | 0.00 | 0.00 | |||
| 20260504194831 | -17 | 0.0 | 0.0 | 0.00 | 0.00 | 0.00 | |||
| 20260504194330 | -17 | 0.0 | 0.0 | 0.00 | 0.00 | 0.00 | |||
| 20260504193804 | -17 | 0.0 | 0.0 | 0.00 | 0.00 | 0.00 | |||
| 20260504193302 | -17 | 0.0 | 0.0 | 0.00 | 0.00 | 0.00 | |||
| 20260504192731 | -17 | 0.0 | 0.0 | 0.00 | 0.00 | 0.00 | |||
| 20260504192719 | -17 | 0.0 | 0.0 | 0.00 | 0.00 | 0.00 | |||
| 20260504191925 | -17 | 0.0 | 0.0 | 0.00 | 0.00 | 0.00 | |||
| 20260504191202 | -17 | 0.0 | 0.0 | 0.00 | 0.00 | 0.00 | |||
| 20260504190631 | -17 | 0.0 | 0.0 | 0.00 | 0.00 | 0.00 | |||
| 20260504190130 | -17 | 0.0 | 0.0 | 0.00 | 0.00 | 0.00 | |||
| 20260504185603 | -17 | 0.0 | 0.0 | 0.00 | 0.00 | 0.00 | |||
| 20260504185102 | -17 | 0.0 | 0.0 | 0.00 | 0.00 | 0.00 | |||
| 20260504184532 | -17 | 0.0 | 0.0 | 0.00 | 0.00 | 0.00 | |||
| 20260504184030 | -17 | 0.0 | 0.0 | 0.00 | 0.00 | 0.00 | |||
| 20260504183503 | -17 | 0.0 | 0.0 | 0.00 | 0.00 | 0.00 | |||
| 20260504183003 | -17 | 0.0 | 0.0 | 0.00 | 0.00 | 0.00 | |||
| 20260504182432 | -17 | 0.0 | 0.0 | 0.00 | 0.00 | 0.00 | |||
| 20260504181930 | -17 | 0.0 | 0.0 | 0.00 | 0.00 | 0.00 | |||
| 20260504181403 | -17 | 0.0 | 0.0 | 0.00 | 0.00 | 0.00 | |||
| 20260504181124 | -17 | 0.0 | 0.0 | 0.00 | 0.00 | 0.00 | |||
| 20260504180303 | -17 | 0.0 | 0.0 | 0.00 | 0.00 | 0.00 | |||
| 20260504175802 | -17 | 0.0 | 0.0 | 0.00 | 0.00 | 0.00 | |||
| 20260504175523 | -17 | 0.0 | 0.0 | 0.00 | 0.00 | 0.00 | |||
| 20260504175512 | -17 | 0.0 | 0.0 | 0.00 | 0.00 | 0.00 | |||
| 20260504174203 | -17 | 0.0 | 0.0 | 0.00 | 0.00 | 0.00 | |||
| 20260504173702 | -17 | 0.0 | 0.0 | 0.00 | 0.00 | 0.00 | |||
| 20260504173131 | -17 | 0.0 | 0.0 | 0.00 | 0.00 | 0.00 | |||
| 20260504172630 | -17 | 0.0 | 0.0 | 0.00 | 0.00 | 0.00 | |||
| 20260504172103 | -17 | 0.0 | 0.0 | 0.00 | 0.00 | 0.00 | |||
| 20260504171602 | -17 | 0.0 | 0.0 | 0.00 | 0.00 | 0.00 | |||
| 20260504171031 | -17 | 0.0 | 0.0 | 0.00 | 0.00 | 0.00 | |||
| 20260504170531 | -17 | 0.0 | 0.0 | 0.00 | 0.00 | 0.00 | |||
| 20260504160303 | 22 | 199 | 11.3 | 19.3 | 0.00 | 0.00 | 0.00 | 59 | 1015.9 |
| 20260504150804 | 21 | 155 | 9.7 | 19.3 | 0.00 | 0.00 | 0.00 | 67 | 1016.0 |
| 20260504150303 | 21 | 194 | 11.3 | 16.1 | 0.00 | 0.00 | 0.00 | 65 | 1015.8 |
| 20260504141303 | 20 | 212 | 4.8 | 9.7 | 0.00 | 0.00 | 0.00 | 78 | 1016.1 |
| 20260504140803 | 19 | 209 | 4.8 | 9.7 | 0.00 | 0.00 | 0.00 | 77 | 1016.1 |
| 20260504140304 | 19 | 189 | 4.8 | 9.7 | 0.00 | 0.00 | 0.00 | 80 | 1016.0 |
| 20260504130749 | 15 | 225 | 0.0 | 0.0 | 0.00 | 0.00 | 0.00 | 99 | 1016.1 |
| 20260504120303 | 11 | 225 | 0.0 | 0.0 | 0.00 | 0.00 | 0.00 | 96 | 1015.9 |
| 20260504110304 | 11 | 225 | 0.0 | 0.0 | 0.00 | 0.00 | 0.00 | 95 | 1015.6 |